• In Italy
  • List of Countries
  • For 7 days
  • Water Temperature
  • Satellite Maps
  • Weather Map
  • Weather Widgets
  • user-avatar
    Login

    Hourly Weather Mendoza

    Today, 19 August, Sunday

    Time Temperature Precipitation Wind Pressure Humidity
    00:00 +4°C° 0 mm 3 mps 706 mmHg 32%
    01:00 +4°C° 0 mm 4 mps 707 mmHg 32%
    02:00 +4°C° 0 mm 4 mps 707 mmHg 33%
    03:00 +3°C° 0 mm 3 mps 707 mmHg 35%
    04:00 +3°C° 0 mm 3 mps 708 mmHg 36%
    05:00 +3°C° 0 mm 3 mps 708 mmHg 38%
    06:00 +3°C° 0 mm 4 mps 709 mmHg 40%
    07:00 +3°C° 0 mm 4 mps 709 mmHg 42%
    08:00 +4°C° 0 mm 4 mps 709 mmHg 41%
    09:00 +5°C° 0 mm 3 mps 709 mmHg 40%
    10:00 +7°C° 0 mm 3 mps 709 mmHg 40%
    11:00 +8°C° 0 mm 3 mps 708 mmHg 38%
    12:00 +9°C° 0 mm 3 mps 708 mmHg 37%
    13:00 +9°C° 0 mm 2 mps 707 mmHg 35%
    14:00 +9°C° 0 mm 2 mps 707 mmHg 35%
    15:00 +9°C° 0 mm 2 mps 707 mmHg 35%
    16:00 +10°C° 0 mm 1 mps 707 mmHg 35%
    17:00 +10°C° 0 mm 1 mps 707 mmHg 37%
    18:00 +9°C° 0 mm 1 mps 708 mmHg 39%
    19:00 +8°C° 0 mm 1 mps 708 mmHg 40%
    20:00 +8°C° 0 mm 1 mps 709 mmHg 41%
    21:00 +7°C° 0 mm 1 mps 709 mmHg 42%
    22:00 +7°C° 0 mm 1 mps 709 mmHg 43%
    23:00 +7°C° 0 mm 1 mps 708 mmHg 43%

    Tomorrow, 20 August, Monday

    Time Temperature Precipitation Wind Pressure Humidity
    00:00 +5°C° 0 mm 2 mps 708 mmHg 43%
    01:00 +5°C° 0 mm 2 mps 707 mmHg 43%
    02:00 +4°C° 0 mm 2 mps 707 mmHg 42%
    03:00 +5°C° 0 mm 1 mps 706 mmHg 41%
    04:00 +5°C° 0 mm 1 mps 705 mmHg 41%
    05:00 +4°C° 0 mm 2 mps 705 mmHg 38%
    06:00 +4°C° 0 mm 2 mps 705 mmHg 36%
    07:00 +5°C° 0 mm 2 mps 705 mmHg 34%
    08:00 +7°C° 0 mm 3 mps 705 mmHg 31%
    09:00 +8°C° 0 mm 3 mps 704 mmHg 28%
    10:00 +10°C° 0 mm 4 mps 704 mmHg 25%
    11:00 +11°C° 0 mm 4 mps 704 mmHg 24%
    12:00 +12°C° 0 mm 4 mps 703 mmHg 23%
    13:00 +13°C° 0 mm 5 mps 702 mmHg 22%
    14:00 +13°C° 0 mm 4 mps 702 mmHg 22%
    15:00 +13°C° 0 mm 4 mps 702 mmHg 22%
    16:00 +13°C° 0 mm 4 mps 701 mmHg 22%
    17:00 +12°C° 0 mm 3 mps 702 mmHg 24%
    18:00 +11°C° 0 mm 3 mps 702 mmHg 26%
    19:00 +10°C° 0 mm 2 mps 702 mmHg 28%
    20:00 +10°C° 0 mm 2 mps 702 mmHg 28%
    21:00 +9°C° 0 mm 2 mps 702 mmHg 28%
    22:00 +9°C° 0 mm 2 mps 702 mmHg 27%
    23:00 +8°C° 0 mm 2 mps 702 mmHg 28%

    Day after tomorrow, 21 August, Tuesday

    Time Temperature Precipitation Wind Pressure Humidity
    00:00 +8°C° 0 mm 2 mps 701 mmHg 28%
    01:00 +7°C° 0 mm 2 mps 701 mmHg 28%
    02:00 +7°C° 0 mm 2 mps 701 mmHg 28%
    03:00 +6°C° 0 mm 2 mps 700 mmHg 29%
    04:00 +6°C° 0 mm 2 mps 700 mmHg 29%
    05:00 +6°C° 0 mm 2 mps 700 mmHg 29%
    06:00 +7°C° 0 mm 2 mps 701 mmHg 29%
    07:00 +7°C° 0 mm 2 mps 701 mmHg 29%
    08:00 +9°C° 0 mm 3 mps 701 mmHg 26%
    09:00 +12°C° 0 mm 3 mps 702 mmHg 23%
    10:00 +14°C° 0 mm 3 mps 702 mmHg 19%
    11:00 +16°C° 0 mm 3 mps 701 mmHg 18%
    12:00 +17°C° 0 mm 4 mps 701 mmHg 17%
    13:00 +19°C° 0 mm 4 mps 701 mmHg 15%
    14:00 +19°C° 0 mm 4 mps 700 mmHg 15%
    15:00 +19°C° 0 mm 4 mps 700 mmHg 15%
    16:00 +19°C° 0 mm 4 mps 700 mmHg 15%
    17:00 +17°C° 0 mm 3 mps 700 mmHg 17%
    18:00 +16°C° 0 mm 3 mps 700 mmHg 18%
    19:00 +14°C° 0 mm 2 mps 700 mmHg 20%
    20:00 +13°C° 0 mm 3 mps 700 mmHg 21%
    21:00 +12°C° 0 mm 3 mps 701 mmHg 22%
    22:00 +11°C° 0 mm 3 mps 701 mmHg 22%
    23:00 +11°C° 0 mm 3 mps 700 mmHg 23%

    22 August, Wednesday

    Time Temperature Precipitation Wind Pressure Humidity
    00:00 +10°C° 0 mm 2 mps 700 mmHg 24%
    01:00 +10°C° 0 mm 2 mps 699 mmHg 25%
    02:00 +9°C° 0 mm 2 mps 699 mmHg 26%
    03:00 +9°C° 0 mm 3 mps 698 mmHg 26%
    04:00 +8°C° 0 mm 3 mps 698 mmHg 27%
    05:00 +8°C° 0 mm 3 mps 698 mmHg 28%
    06:00 +9°C° 0 mm 3 mps 698 mmHg 29%
    07:00 +9°C° 0 mm 3 mps 698 mmHg 30%
    08:00 +11°C° 0 mm 3 mps 697 mmHg 27%
    09:00 +14°C° 0 mm 4 mps 697 mmHg 24%
    10:00 +17°C° 0 mm 4 mps 697 mmHg 21%
    11:00 +19°C° 0 mm 5 mps 696 mmHg 18%
    12:00 +20°C° 0 mm 5 mps 695 mmHg 15%
    13:00 +22°C° 0 mm 6 mps 694 mmHg 12%
    14:00 +22°C° 0 mm 6 mps 693 mmHg 12%
    15:00 +22°C° 0 mm 6 mps 693 mmHg 11%
    16:00 +22°C° 0 mm 6 mps 692 mmHg 11%
    17:00 +20°C° 0 mm 6 mps 692 mmHg 13%
    18:00 +19°C° 0 mm 5 mps 691 mmHg 15%
    19:00 +16°C° 0 mm 5 mps 691 mmHg 17%
    20:00 +15°C° 0 mm 5 mps 691 mmHg 19%
    21:00 +14°C° 0 mm 5 mps 691 mmHg 21%
    22:00 +14°C° 0 mm 5 mps 690 mmHg 23%
    23:00 +13°C° 0 mm 4 mps 690 mmHg 27%

    23 August, Thursday

    Time Temperature Precipitation Wind Pressure Humidity
    00:00 +12°C° 0 mm 4 mps 690 mmHg 30%
    01:00 +12°C° 0 mm 4 mps 689 mmHg 33%
    02:00 +11°C° 0 mm 4 mps 689 mmHg 35%
    03:00 +10°C° 0 mm 4 mps 689 mmHg 37%
    04:00 +10°C° 0 mm 4 mps 689 mmHg 39%
    05:00 +10°C° 0 mm 4 mps 690 mmHg 37%
    06:00 +10°C° 0 mm 4 mps 691 mmHg 35%
    07:00 +10°C° 0 mm 4 mps 691 mmHg 33%
    08:00 +12°C° 0 mm 5 mps 692 mmHg 29%
    09:00 +14°C° 0 mm 6 mps 692 mmHg 26%
    10:00 +16°C° 0 mm 7 mps 693 mmHg 23%
    11:00 +17°C° 0 mm 7 mps 693 mmHg 22%
    12:00 +17°C° 0 mm 7 mps 692 mmHg 22%
    13:00 +17°C° 0 mm 8 mps 692 mmHg 22%
    14:00 +17°C° 0 mm 8 mps 692 mmHg 24%
    15:00 +16°C° 0 mm 8 mps 692 mmHg 27%
    16:00 +15°C° 0 mm 8 mps 693 mmHg 29%
    17:00 +13°C° 0.1 mm 8 mps 694 mmHg 32%
    18:00 +12°C° 0.1 mm 7 mps 695 mmHg 35%
    19:00 +11°C° 0.1 mm 6 mps 695 mmHg 37%
    20:00 +10°C° 0.6 mm 6 mps 696 mmHg 42%
    21:00 +9°C° 0.6 mm 6 mps 697 mmHg 46%
    22:00 +8°C° 0.6 mm 6 mps 698 mmHg 51%
    23:00 +7°C° 0.7 mm 6 mps 698 mmHg 54%

    24 August, Friday

    Time Temperature Precipitation Wind Pressure Humidity
    00:00 +7°C° 0.7 mm 5 mps 699 mmHg 57%
    01:00 +6°C° 0.7 mm 4 mps 699 mmHg 60%
    02:00 +6°C° 0.5 mm 4 mps 700 mmHg 62%
    03:00 +6°C° 0.5 mm 5 mps 701 mmHg 64%
    04:00 +6°C° 0.5 mm 5 mps 701 mmHg 66%
    05:00 +6°C° 0.3 mm 4 mps 702 mmHg 66%
    06:00 +6°C° 0.3 mm 4 mps 703 mmHg 66%
    07:00 +6°C° 0.3 mm 4 mps 704 mmHg 66%
    08:00 +7°C° 0.1 mm 4 mps 704 mmHg 59%
    09:00 +8°C° 0.1 mm 4 mps 704 mmHg 52%
    10:00 +10°C° 0.1 mm 4 mps 704 mmHg 46%
    11:00 +11°C° 0 mm 3 mps 704 mmHg 43%
    12:00 +11°C° 0 mm 3 mps 704 mmHg 39%
    13:00 +12°C° 0 mm 3 mps 703 mmHg 36%
    14:00 +12°C° 0 mm 3 mps 703 mmHg 37%
    15:00 +13°C° 0 mm 2 mps 703 mmHg 37%
    16:00 +13°C° 0 mm 2 mps 703 mmHg 38%
    17:00 +12°C° 0 mm 2 mps 704 mmHg 40%
    18:00 +12°C° 0 mm 2 mps 705 mmHg 43%
    19:00 +10°C° 0 mm 2 mps 705 mmHg 45%
    20:00 +11°C° 0 mm 1 mps 705 mmHg 46%
    21:00 +10°C° 0 mm 1 mps 705 mmHg 47%
    22:00 +10°C° 0 mm 1 mps 705 mmHg 49%
    23:00 +9°C° 0 mm 1 mps 705 mmHg 48%
    Show more